STARLINK-5093 (56332 NORAD) Tracking and Keplerian Element Data

This shows tracking and keplerian element data for the satellite.

Feedback or suggestion? Click here.




ElementValue
Catalog56332
NameSTARLINK-5093
Epoch Orbit179
Epoch Day126.91667824
Epoch Year2023
RAAN126.3817
Inclination97.6635
Eccentricity0.0001578
Argument of Perigee94.8549
Mean Anonmoly121.7667
Mean Motion15.68179388
Decay Rate-0.00797785
L11 56332U 23058R 23126.91667824 -.00797785 00000+0 -78879-2 0 9999
L22 56332 97.6635 126.3817 0001578 94.8549 121.7667 15.68179388 1798



Live tracking and technical data element details for STARLINK-5093 (NORAD 56332). STARLINK-5093 can be tracked NOW for your location showing map with azimuth and elevation plus other details from your city location.







IsCatalogInMostPopularTable: catalog: 56332, numindb: 2
Update: records affected: 1



GetName: 56332 STARLINK-5093

Hit Count: updated at: Sat, 03 Jun 2023 18:49:34 GMT